Regional Weather Roundup
Issued by NWS

Home | Current Version | Previous Version | Graphics & Text | Print | Product List | Glossary On
Versions: 1 2 3 4 5 6 7 8 9 10 11 12 13 14 15 16 17 18 19 20 21 22 23 24 25 26 27 28 29 30 31 32 33 34 35 36 37 38 39 40 41 42 43 44 45 46 47 48 49
000
ASUS43 KDMX 290607
RWRIA

WEATHER ROUNDUP FOR IOWA
NATIONAL WEATHER SERVICE DES MOINES IA
100 AM CDT WED JUL 29 2015

NOTE: "FAIR" INDICATES FEW OR NO CLOUDS BELOW 12,000 FEET WITH NO
SIGNIFICANT WEATHER AND/OR OBSTRUCTIONS TO VISIBILITY.

* - THESE STATIONS ARE NOT NWS STATIONS...THUS NOT UNDER NWS
QUALITY CONTROL.  THEY ALSO DO NOT REPORT WEATHER SUCH
AS PRECIPITATION OR FOG.

IAZ001>003-012>014-020>022-031>034-043>046-290700-
   NORTHWEST IOWA

CITY           SKY/WX    TMP DP  RH WIND       PRES   REMARKS
CARROLL *      PTCLDY    66  66 100 NW5       30.04S
CHEROKEE *     CLEAR     60  60 100 CALM      30.04S
DENISON *      CLEAR     64  61  88 CALM      30.04R
LE MARS *      CLEAR     61  61 100 CALM      30.06R FOG
ORANGE CITY *  CLEAR     61  61 100 NW5       30.06R
SHELDON *      CLEAR     61  57  88 W7        30.04R
SIOUX CITY     CLEAR     62  59  90 NW3       30.05R
6HR MIN TEMP:  62; 6HR MAX TEMP:  80;

SPENCER        CLEAR     60  57  89 W3        30.04R
6HR MIN TEMP:  60; 6HR MAX TEMP:  79;

STORM LAKE *   CLEAR     63  59  88 NW7       30.05S
$$

IAZ055>058-069>071-079>083-090>094-290700-
   SOUTHWEST IOWA

CITY           SKY/WX    TMP DP  RH WIND       PRES   REMARKS
ATLANTIC *     CLOUDY    72  66  83 N9        30.04R
AUDUBON *      CLEAR     70  64  83 N7        30.05S
CLARINDA *     PTCLDY    73  73 100 N8G14     30.02R
COUNCIL BLFS * PTCLDY    70  64  83 N7        30.06R
CRESTON *      CLOUDY    70  70 100 E5        30.02R
HARLAN  *      CLEAR     66  66 100 CALM      30.09R
LAMONI         LGT RAIN  72  70  93 E5        30.01R
6HR MIN TEMP:  71; 6HR MAX TEMP:  91; 6HR PCP:  2.32;

RED OAK *      CLOUDY    73  68  83 N10G16    30.03R
SHENANDOAH *   MOCLDY    73  72  94 NW6       30.03R
$$

IAZ047>049-059>061-072>074-084-290700-
   CENTRAL IOWA

CITY           SKY/WX    TMP DP  RH WIND       PRES   REMARKS
AMES           CLOUDY    71  50  47 CALM      30.01R
6HR MIN TEMP:  70; 6HR MAX TEMP:  77; 6HR PCP:  1.29;

ANKENY *       CLOUDY    72  72 100 NW5       30.00R
CHARITON *     LGT RAIN  70  70 100 CALM      29.99S
DES MOINES     LGT RAIN  72  69  90 CALM      30.00R
6HR MIN TEMP:  71; 6HR MAX TEMP:  77; 6HR PCP:  2.09;

GRINNELL*      LGT RAIN  70  68  94 W13       30.01R
KNOXVILLE *    LGT RAIN  70  68  94 W6        29.98R
MARSHALLTOWN   LGT RAIN  71  70  96 W7        30.00R FOG
6HR MIN TEMP:  71; 6HR MAX TEMP:  75; 6HR PCP:  0.57;

PELLA *        RAIN      70  70 100 W5        30.01R
PERRY *        CLOUDY    68  68 100 NW6       30.01S
$$

IAZ004>006-015-016-023>025-035-036-290700-
   NORTH CENTRAL IOWA

CITY           SKY/WX    TMP DP  RH WIND       PRES   REMARKS
ALGONA *       CLEAR     63  61  94 SW6       30.02S
CLARION *      CLEAR     68  64  88 NW7       30.01S
ESTHERVILLE    PTCLDY    60  58  92 SW6       30.03R
6HR MIN TEMP:  59; 6HR MAX TEMP:  78;

FORT DODGE *   CLOUDY    68  64  88 NW3       30.03R
MASON CITY     CLOUDY    65  62  90 W12       30.01S
6HR MIN TEMP:  65; 6HR MAX TEMP:  76;

FOREST CITY *  CLEAR     64  63  94 CALM      30.01S
IOWA FALLS *   CLOUDY    73  67  81 NW9       30.01R
$$

IAZ007>011-017>019-026>030-037>042-050>054-066-290700-
   NORTHEAST IOWA

CITY           SKY/WX    TMP DP  RH WIND       PRES   REMARKS
CEDAR RAPIDS   LGT RAIN  70  70 100 SW5       29.96F
6HR MIN TEMP:  70; 6HR MAX TEMP:  74; 6HR PCP:  0.18;

CHARLES CITY * CLOUDY    73  68  83 NW8       29.99R
CLINTON *      CLOUDY    73  72  94 NW5       29.95F
DECORAH *      CLOUDY    75  72  88 W3        29.96S
DUBUQUE        CLOUDY    73  71  93 CALM      29.95F
6HR MIN TEMP:  72; 6HR MAX TEMP:  78;

MONTICELLO *   DRIZZLE   72  72 100 CALM      29.94F
OELWEIN *      CLOUDY    73  72  94 W5        29.97F
WATERLOO       CLOUDY    73  72  96 SW6       29.96S
6HR MIN TEMP:  73; 6HR MAX TEMP:  74; 6HR PCP:  0.02;

$$

IAZ064-065-067-068-078-290700-
   EAST CENTRAL IOWA

CITY           SKY/WX    TMP DP  RH WIND       PRES   REMARKS
DAVENPORT      CLOUDY    74  73  97 CALM      29.93F
6HR MIN TEMP:  74; 6HR MAX TEMP:  83;

IOWA CITY      LGT RAIN  72  71  97 NW6       29.96F
6HR MIN TEMP:  72; 6HR MAX TEMP:  78; 6HR PCP:  0.14;

MT. PLEASANT * CLOUDY    75  67  77 W5        29.97R
MUSCATINE *    PTCLDY    75  73  94 CALM      29.93F
QUAD CITIES    CLOUDY    77  74  90 CALM      29.91F
6HR MIN TEMP:  77; 6HR MAX TEMP:  85; 6HR PCP: TRACE;

$$

IAZ062-063-075>077-085>089-095>099-290700-
   SOUTHEAST IOWA

CITY           SKY/WX    TMP DP  RH WIND       PRES   REMARKS
BURLINGTON     CLOUDY    77  73  87 NE3       29.93F
6HR MIN TEMP:  76; 6HR MAX TEMP:  89;

FAIRFIELD *    RAIN      72  70  94 NW10G16   29.97R
FORT MADISON * CLEAR     73  73 100 W8        29.96R
KEOKUK *       CLEAR     75  72  88 W6        29.95R
OSKALOOSA *    RAIN      70  69  96 W3        30.00R
CENTERVILLE *  HVY RAIN  70  68  94 S6        30.04R
OTTUMWA        TSTM      71  71 100 NW8       29.98R
WASHINGTON *   LGT RAIN  72  72 100 W5        29.97S
$$

ABBREVIATIONS USED IN REMARKS
   TC - TEMPERATURES IN CELSIUS
  WCI - WIND CHILL INDEX
   HX - HEAT INDEX
  VSB - VISIBILITY
$$



USA.gov is the U.S. government's official web portal to all federal, state and local government web resources and services.